Content
SEND FEEDBACK

Daily
Averages
Monthly
Summary
United States of America

BERKELEY - UNIVERSITY OF CALIFORNIA, CALIFORNIA


Home > North America > United States > California
Elevation: 1750 feet     Latitude: 37 52N     Longitude: 122 13W

WEATHER
 
SELECT A DAY
Number of Records: 186,770;   Date Range: 1/1/95 - 10/30/14
 
SHARE

PRINT THIS DATA

[ ← Previous Day ]
WEATHER ALMANAC - JANUARY 24, 2013
[ Next Day → ]
[ °C ]   °F
Weather ElementAverageHighLow
Temperature54.7 °F57.9 °F (3:53 pm)51.8 °F (7:34 am)
Dewpoint54.3 °F55.9 °F (10:53 am)51.8 °F (7:34 am)
Humidity98.4 %100 % (1:53 am)89 % (1:53 pm)
Barometer30.15 in30.21 in (10:53 pm)30.09 in (2:53 am)
Wind Speed2 mph5.8 mph (2:53 am)
Weather ElementAverage
Visibility6.8 mi
Wind DirectionESE (102.8 °)

Weather ElementTotal
Precipitation---
Heating Degree Days10.2 (Base 65)
Growing Degree Days4.8 (Base 50)
Averaged from 25 records on January 24, 2013
WEATHER CONDITIONS BREAKOUT
WIND DIRECTION BREAKOUT
WEATHER BY HOUR - JANUARY 24, 2013
[ °C ]   °F
Local TimeTemperatureDewpointHumidityBarometerVisibilityWind DirectionWind SpeedGust SpeedPrecipitationEventsConditions
1:53 AM52.0 °F52.0 °F100 %30.10 in7.0 miNNW (340°)3.5 mphOvercast
2:53 AM54.0 °F54.0 °F100 %30.09 in7.0 miESE (120°)5.8 mphOvercast
3:53 AM53.1 °F53.1 °F100 %30.09 in6.0 miCalmOvercast
4:53 AM53.1 °F53.1 °F100 %30.10 in6.0 miCalmOvercast
5:53 AM52.0 °F52.0 °F100 %30.11 in5.0 miWest (280°)3.5 mphOvercast
6:53 AM53.1 °F53.1 °F100 %30.12 in6.0 miCalmOvercast
7:34 AM51.8 °F51.8 °F100 %30.12 in2.5 miCalmOvercast
7:53 AM53.1 °F53.1 °F100 %30.13 in2.5 miCalmOvercast
8:30 AM53.6 °F53.6 °F100 %30.13 in3.0 miCalmOvercast
8:53 AM55.0 °F55.0 °F100 %30.14 in3.0 miCalmOvercast
9:53 AM55.0 °F55.0 °F100 %30.17 in4.0 miCalmOvercast
10:53 AM55.9 °F55.9 °F100 %30.18 in6.0 miWest (280°)4.6 mphOvercast
11:53 AM55.0 °F55.0 °F100 %30.17 in10.0 miWest (280°)4.6 mphOvercast
12:53 PM55.9 °F54.0 °F93 %30.14 in10.0 miWSW (250°)4.6 mphOvercast
1:53 PM57.0 °F54.0 °F89 %30.14 in10.0 miCalmOvercast
2:53 PM57.0 °F55.0 °F93 %30.14 in8.0 miSSE (160°)4.6 mphOvercast
3:53 PM57.9 °F55.0 °F90 %30.14 in8.0 miSSE (150°)5.8 mphOvercast
4:53 PM57.0 °F55.9 °F96 %30.16 in7.0 miSouth (190°)4.6 mphOvercast
5:53 PM55.9 °F55.9 °F100 %30.16 in7.0 miSouth (190°)4.6 mphOvercast
6:53 PM55.0 °F55.0 °F100 %30.18 in7.0 miCalmMostly Cloudy
7:53 PM55.9 °F55.9 °F100 %30.19 in8.0 miCalmMostly Cloudy
8:53 PM55.0 °F55.0 °F100 %30.19 in9.0 miCalmFogMostly Cloudy
9:53 PM55.0 °F55.0 °F100 %30.19 in9.0 miCalmFogMostly Cloudy
10:53 PM54.0 °F54.0 °F100 %30.21 in9.0 miCalmMostly Cloudy
11:53 PM55.0 °F55.0 °F100 %30.21 in10.0 miNNW (330°)3.5 mphOvercast
Hourly data recorded from KOAK, located miles away from Berkeley - University of California, California







STORIES FROM OUR PARTNERS